| time (UTC) | temp F | wind direction | speed MPH | gust MPH | rain 1hr in | rain 24hr in | rain mn in | humidity % | barometer mb |
| 20260905171821 | 94 | 210 | 1.0 | 6.0 | 0.00 | 0.00 | 0.01 | 48 | 1014.8 |
| 20260905170846 | 93 | 163 | 1.0 | 6.0 | 0.00 | 0.00 | 0.01 | 49 | 1015.2 |
| 20260905164835 | 94 | 125 | 1.0 | 3.0 | 0.00 | 0.00 | 0.01 | 48 | 1015.2 |
| 20260905163804 | 93 | 164 | 1.0 | 4.0 | 0.00 | 0.00 | 0.01 | 49 | 1015.2 |
| 20260905162819 | 93 | 151 | 1.0 | 2.0 | 0.00 | 0.00 | 0.01 | 53 | 1015.2 |
| 20260905161846 | 92 | 195 | 0.0 | 2.0 | 0.00 | 0.00 | 0.01 | 54 | 1015.2 |
| 20260905160816 | 92 | 256 | 1.0 | 2.0 | 0.00 | 0.00 | 0.01 | 52 | 1015.2 |
| 20260905155814 | 92 | 201 | 1.0 | 2.0 | 0.00 | 0.00 | 0.01 | 56 | 1015.2 |
| 20260905154806 | 92 | 164 | 1.0 | 6.0 | 0.00 | 0.00 | 0.01 | 57 | 1015.2 |
| 20260905153828 | 90 | 133 | 1.0 | 5.0 | 0.00 | 0.00 | 0.01 | 60 | 1015.2 |
| 20260905152836 | 88 | 270 | 1.0 | 2.0 | 0.00 | 0.00 | 0.01 | 63 | 1015.2 |
| 20260905151831 | 88 | 172 | 2.0 | 5.0 | 0.00 | 0.00 | 0.01 | 64 | 1015.2 |
| 20260905145828 | 86 | 181 | 1.0 | 3.0 | 0.00 | 0.00 | 0.01 | 70 | 1015.2 |
| 20260905144831 | 87 | 172 | 0.0 | 3.0 | 0.00 | 0.00 | 0.01 | 67 | 1014.8 |
| 20260905143846 | 86 | 208 | 0.0 | 4.0 | 0.00 | 0.00 | 0.01 | 70 | 1015.2 |
| 20260905142849 | 85 | 233 | 0.0 | 2.0 | 0.00 | 0.00 | 0.01 | 74 | 1014.8 |
| 20260905140840 | 83 | 270 | 1.0 | 3.0 | 0.00 | 0.00 | 0.01 | 78 | 1015.2 |
| 20260905135824 | 82 | 207 | 0.0 | 1.0 | 0.00 | 0.00 | 0.01 | 81 | 1015.2 |
| 20260905134831 | 81 | 208 | 0.0 | 2.0 | 0.00 | 0.00 | 0.01 | 82 | 1014.8 |
| 20260905133816 | 80 | 208 | 0.0 | 2.0 | 0.00 | 0.00 | 0.01 | 84 | 1015.2 |
| 20260905132847 | 79 | 187 | 0.0 | 2.0 | 0.00 | 0.00 | 0.01 | 85 | 1014.8 |
| 20260905131829 | 79 | 283 | 0.0 | 1.0 | 0.00 | 0.00 | 0.01 | 86 | 1014.8 |
| 20260905130808 | 78 | 85 | 0.0 | 1.0 | 0.00 | 0.00 | 0.01 | 88 | 1014.5 |
| 20260905125806 | 77 | 335 | 0.0 | 1.0 | 0.00 | 0.00 | 0.01 | 89 | 1014.5 |
| 20260905124840 | 77 | 124 | 0.0 | 0.0 | 0.00 | 0.00 | 0.01 | 89 | 1014.2 |
| 20260905123804 | 77 | 228 | 0.0 | 0.0 | 0.00 | 0.00 | 0.01 | 89 | 1014.2 |
| 20260905122828 | 77 | 91 | 0.0 | 0.0 | 0.00 | 0.00 | 0.01 | 89 | 1014.2 |
| 20260905121822 | 77 | 121 | 0.0 | 1.0 | 0.00 | 0.00 | 0.01 | 88 | 1014.2 |
| 20260905120836 | 77 | 240 | 0.0 | 0.0 | 0.00 | 0.00 | 0.01 | 87 | 1014.2 |
| 20260905115823 | 77 | 121 | 0.0 | 1.0 | 0.00 | 0.00 | 0.01 | 88 | 1014.2 |
| 20260905114824 | 77 | 98 | 0.0 | 1.0 | 0.00 | 0.00 | 0.01 | 88 | 1013.5 |
| 20260905113805 | 77 | 113 | 0.0 | 1.0 | 0.00 | 0.00 | 0.01 | 87 | 1013.8 |
| 20260905111816 | 77 | 235 | 0.0 | 1.0 | 0.00 | 0.00 | 0.01 | 88 | 1014.2 |
| 20260905104840 | 77 | 94 | 0.0 | 1.0 | 0.00 | 0.00 | 0.01 | 88 | 1014.2 |
| 20260905103840 | 77 | 134 | 0.0 | 0.0 | 0.00 | 0.00 | 0.01 | 87 | 1013.8 |
| 20260905102813 | 77 | 141 | 0.0 | 1.0 | 0.00 | 0.00 | 0.01 | 87 | 1014.2 |
| 20260905101818 | 77 | 124 | 0.0 | 1.0 | 0.00 | 0.00 | 0.01 | 86 | 1013.8 |
| 20260905100831 | 78 | 161 | 0.0 | 1.0 | 0.00 | 0.00 | 0.01 | 86 | 1013.8 |
| 20260905094809 | 78 | 120 | 0.0 | 0.0 | 0.00 | 0.00 | 0.01 | 84 | 1013.5 |
| 20260905093821 | 78 | 205 | 0.0 | 0.0 | 0.00 | 0.00 | 0.01 | 84 | 1013.8 |
| 20260905092832 | 79 | 45 | 0.0 | 0.0 | 0.00 | 0.00 | 0.01 | 84 | 1013.8 |
| 20260905090843 | 79 | 239 | 0.0 | 0.0 | 0.00 | 0.00 | 0.01 | 82 | 1013.8 |
| 20260905084808 | 80 | 130 | 0.0 | 0.0 | 0.00 | 0.00 | 0.01 | 81 | 1013.8 |
| 20260905083826 | 80 | 124 | 0.0 | 1.0 | 0.00 | 0.00 | 0.01 | 80 | 1013.5 |
| 20260905082848 | 80 | 117 | 0.0 | 1.0 | 0.00 | 0.00 | 0.01 | 79 | 1013.5 |
| 20260905081806 | 81 | 126 | 0.0 | 1.0 | 0.00 | 0.00 | 0.01 | 79 | 1013.8 |
| 20260905080834 | 81 | 156 | 0.0 | 2.0 | 0.00 | 0.00 | 0.01 | 78 | 1013.5 |
| 20260905075826 | 81 | 162 | 0.0 | 2.0 | 0.00 | 0.00 | 0.01 | 77 | 1013.5 |
| 20260905073847 | 82 | 154 | 0.0 | 2.0 | 0.00 | 0.00 | 0.01 | 76 | 1013.8 |
| 20260905072841 | 82 | 146 | 0.0 | 2.0 | 0.00 | 0.00 | 0.01 | 76 | 1013.5 |
| 20260905071836 | 82 | 147 | 0.0 | 1.0 | 0.00 | 0.00 | 0.01 | 75 | 1013.8 |
| 20260905065815 | 82 | 131 | 0.0 | 1.0 | 0.00 | 0.00 | 0.01 | 75 | 1014.2 |
| 20260905064806 | 83 | 163 | 0.0 | 2.0 | 0.00 | 0.00 | 0.01 | 74 | 1014.2 |
| 20260905063838 | 83 | 157 | 0.0 | 2.0 | 0.00 | 0.00 | 0.01 | 73 | 1014.2 |
| 20260905062809 | 84 | 156 | 1.0 | 3.0 | 0.00 | 0.00 | 0.01 | 73 | 1014.2 |
| 20260905060823 | 84 | 184 | 0.0 | 2.0 | 0.00 | 0.00 | 0.01 | 72 | 1014.2 |
| 20260905055838 | 85 | 165 | 1.0 | 3.0 | 0.00 | 0.00 | 0.01 | 71 | 1014.2 |
| 20260905054845 | 85 | 158 | 1.0 | 2.0 | 0.00 | 0.00 | 0.01 | 71 | 1013.8 |
| 20260905053820 | 85 | 164 | 0.0 | 3.0 | 0.00 | 0.00 | 0.01 | 70 | 1013.8 |
| 20260905052809 | 85 | 160 | 1.0 | 3.0 | 0.00 | 0.00 | 0.01 | 70 | 1013.8 |
| 20260905051838 | 85 | 145 | 1.0 | 3.0 | 0.00 | 0.00 | 0.01 | 69 | 1013.8 |
| 20260905045839 | 86 | 156 | 2.0 | 4.0 | 0.00 | 0.00 | 1.39 | 67 | 1013.5 |
| 20260905044805 | 86 | 157 | 2.0 | 4.0 | 0.00 | 0.00 | 1.38 | 66 | 1013.5 |
| 20260905043820 | 87 | 162 | 2.0 | 4.0 | 0.00 | 0.00 | 1.37 | 64 | 1013.5 |
| 20260905042845 | 87 | 166 | 1.0 | 5.0 | 0.00 | 0.00 | 1.36 | 63 | 1013.5 |
| 20260905041840 | 87 | 153 | 1.0 | 3.0 | 0.00 | 0.00 | 1.35 | 62 | 1013.5 |
| 20260905040813 | 88 | 162 | 1.0 | 3.0 | 0.00 | 0.00 | 1.34 | 61 | 1013.5 |
| 20260905034828 | 88 | 168 | 2.0 | 6.0 | 0.00 | 0.00 | 1.32 | 58 | 1013.5 |
| 20260905032826 | 89 | 173 | 1.0 | 2.0 | 0.00 | 0.00 | 1.30 | 55 | 1013.5 |
| 20260905031839 | 90 | 153 | 1.0 | 3.0 | 0.00 | 0.00 | 1.29 | 54 | 1013.5 |
| 20260905030830 | 90 | 160 | 2.0 | 4.0 | 0.00 | 0.00 | 1.28 | 53 | 1013.5 |
| 20260905021810 | 92 | 158 | 1.0 | 3.0 | 0.00 | 0.00 | 1.23 | 51 | 1012.8 |
| 20260905020831 | 92 | 167 | 1.0 | 3.0 | 0.00 | 0.00 | 1.22 | 51 | 1012.5 |
| 20260905015819 | 92 | 156 | 0.0 | 1.0 | 0.00 | 0.00 | 1.21 | 50 | 1012.5 |
| 20260905014806 | 93 | 157 | 1.0 | 3.0 | 0.00 | 0.00 | 1.20 | 50 | 1012.1 |
| 20260905013806 | 93 | 163 | 1.0 | 2.0 | 0.00 | 0.00 | 1.19 | 50 | 1012.1 |
| 20260905012827 | 93 | 167 | 1.0 | 3.0 | 0.00 | 0.00 | 1.18 | 49 | 1011.8 |
| 20260905011830 | 94 | 165 | 1.0 | 3.0 | 0.00 | 0.00 | 1.17 | 48 | 1012.1 |
| 20260905005824 | 94 | 151 | 1.0 | 2.0 | 0.00 | 0.00 | 1.15 | 47 | 1011.8 |
| 20260905004805 | 95 | 166 | 2.0 | 4.0 | 0.00 | 0.00 | 1.14 | 46 | 1011.8 |
| 20260905002810 | 96 | 172 | 1.0 | 3.0 | 0.00 | 0.00 | 1.12 | 44 | 1011.1 |
| 20260905001812 | 96 | 171 | 1.0 | 3.0 | 0.00 | 0.00 | 1.11 | 42 | 1011.1 |
| 20260905000818 | 96 | 172 | 1.0 | 4.0 | 0.00 | 0.00 | 1.10 | 43 | 1011.1 |
| 20260904234844 | 97 | 163 | 1.0 | 4.0 | 0.00 | 0.00 | 1.08 | 44 | 1011.1 |
| 20260904233808 | 97 | 172 | 1.0 | 3.0 | 0.00 | 0.00 | 1.07 | 43 | 1010.8 |
| 20260904232840 | 97 | 175 | 1.0 | 4.0 | 0.00 | 0.00 | 1.06 | 43 | 1011.1 |
| 20260904225835 | 99 | 176 | 1.0 | 4.0 | 0.00 | 0.00 | 1.03 | 40 | 1011.1 |
| 20260904223817 | 99 | 154 | 1.0 | 3.0 | 0.00 | 0.00 | 1.01 | 40 | 1011.5 |
| 20260904222835 | 98 | 171 | 2.0 | 5.0 | 0.00 | 0.00 | 1.00 | 41 | 1011.5 |
| 20260904221829 | 99 | 153 | 1.0 | 6.0 | 0.00 | 0.00 | 9.94 | 41 | 1011.5 |
| 20260904220809 | 99 | 223 | 0.0 | 2.0 | 0.00 | 0.00 | 9.85 | 41 | 1011.5 |
| 20260904214842 | 99 | 173 | 2.0 | 6.0 | 0.00 | 0.00 | 9.65 | 41 | 1011.5 |
| 20260904213842 | 99 | 171 | 2.0 | 6.0 | 0.00 | 0.00 | 9.55 | 42 | 1011.5 |
| 20260904212840 | 99 | 177 | 0.0 | 3.0 | 0.00 | 0.00 | 9.44 | 43 | 1011.8 |
| 20260904210830 | 97 | 168 | 2.0 | 6.0 | 0.00 | 0.00 | 9.25 | 44 | 1011.8 |
| 20260904205810 | 97 | 174 | 3.0 | 7.0 | 0.00 | 0.00 | 9.15 | 44 | 1012.1 |
| 20260904204846 | 97 | 172 | 2.0 | 5.0 | 0.00 | 0.00 | 9.05 | 45 | 1012.5 |
| 20260904203832 | 97 | 175 | 2.0 | 5.0 | 0.00 | 0.00 | 8.94 | 45 | 1012.5 |
| 20260904201819 | 96 | 163 | 2.0 | 6.0 | 0.00 | 0.00 | 8.75 | 47 | 1012.8 |
| 20260904200820 | 97 | 189 | 2.0 | 4.0 | 0.00 | 0.00 | 8.65 | 46 | 1012.8 |
| 20260904195805 | 96 | 177 | 1.0 | 5.0 | 0.00 | 0.00 | 8.55 | 47 | 1013.2 |
| 20260904192841 | 95 | 179 | 1.0 | 6.0 | 0.00 | 0.00 | 8.25 | 48 | 1013.5 |
| 20260904191816 | 96 | 188 | 1.0 | 6.0 | 0.00 | 0.00 | 8.15 | 47 | 1013.5 |
| 20260904190829 | 94 | 139 | 2.0 | 6.0 | 0.00 | 0.00 | 8.05 | 50 | 1013.5 |
| 20260904185815 | 95 | 185 | 2.0 | 6.0 | 0.00 | 0.00 | 7.95 | 49 | 1013.5 |
| 20260904184821 | 96 | 192 | 3.0 | 7.0 | 0.00 | 0.00 | 7.85 | 48 | 1014.2 |
| 20260904183804 | 94 | 170 | 3.0 | 5.0 | 0.00 | 0.00 | 7.74 | 50 | 1014.2 |
| 20260904182812 | 93 | 191 | 1.0 | 3.0 | 0.00 | 0.00 | 7.65 | 53 | 1014.2 |
| 20260904181811 | 93 | 184 | 2.0 | 7.0 | 0.00 | 0.00 | 7.55 | 51 | 1014.5 |
| 20260904180805 | 93 | 146 | 1.0 | 3.0 | 0.00 | 0.00 | 7.45 | 51 | 1014.5 |
| 20260904175827 | 92 | 161 | 2.0 | 6.0 | 0.00 | 0.00 | 7.35 | 52 | 1014.5 |
| 20260904174841 | 91 | 172 | 2.0 | 6.0 | 0.00 | 0.00 | 7.25 | 55 | 1014.5 |
| 20260904173840 | 91 | 159 | 2.0 | 7.0 | 0.00 | 0.00 | 7.15 | 58 | 1014.8 |
| 20260904172832 | 91 | 170 | 1.0 | 4.0 | 0.00 | 0.00 | 7.05 | 56 | 1014.8 |